Location: The Saddle
(36.8333°N, 80.3417°W)
Time: 05:56:38
(UTC-04:00)

Courier 1B - Pass Details

Date: 25 September 2024
Orbit: 962 x 1208 km, 28.3° (Epoch: 05 October)

Event Time Altitude Azimuth Distance (km) Brightness Sun altitude
Rises 16:50:01 0° 261° (W) 3,793 11.8 26.9°
Reaches altitude 10° 16:53:45 10° 242° (WSW) 2,887 11.8 26.3°
Maximum altitude 16:58:00 17° 205° (SSW) 2,465 10.5 25.5°
Drops below altitude 10° 17:02:24 10° 168° (SSE) 2,995 10.3 24.7°
Sets 17:06:24 0° 149° (SSE) 4,000 10.6 23.9°
